| time (UTC) | temp C | wind direction | speed KPH | gust KPH | rain 1hr cm | rain 24hr cm | rain mn cm | humidity % | barometer mb |
| 20260502151913 | 9 | 147 | 3.2 | 11.3 | 0.00 | 0.00 | 0.00 | 55 | 1003.3 |
| 20260502151409 | 9 | 54 | 1.6 | 6.4 | 0.00 | 0.00 | 0.00 | 56 | 1003.4 |
| 20260502150907 | 8 | 166 | 8.0 | 16.1 | 0.00 | 0.00 | 0.00 | 54 | 1003.3 |
| 20260502150403 | 8 | 125 | 6.4 | 16.1 | 0.00 | 0.00 | 0.00 | 54 | 1003.5 |
| 20260502130249 | 5 | 122 | 1.6 | 3.2 | 0.00 | 0.00 | 0.00 | 77 | 1003.6 |
| 20260502123735 | 5 | 121 | 3.2 | 11.3 | 0.00 | 0.00 | 0.00 | 78 | 1003.5 |
| 20260502123231 | 5 | 210 | 3.2 | 3.2 | 0.00 | 0.00 | 0.00 | 80 | 1003.5 |
| 20260502122728 | 5 | 141 | 4.8 | 9.7 | 0.00 | 0.00 | 0.00 | 79 | 1003.6 |
| 20260502122224 | 5 | 144 | 1.6 | 6.4 | 0.00 | 0.00 | 0.00 | 82 | 1003.7 |
| 20260502121723 | 5 | 126 | 9.7 | 14.5 | 0.00 | 0.00 | 0.00 | 81 | 1003.5 |
| 20260502121220 | 4 | 253 | 1.6 | 4.8 | 0.00 | 0.00 | 0.00 | 82 | 1003.7 |
| 20260502120716 | 4 | 248 | 0.0 | 3.2 | 0.00 | 0.00 | 0.00 | 84 | 1003.4 |
| 20260502120213 | 4 | 251 | 0.0 | 1.6 | 0.00 | 0.00 | 0.00 | 85 | 1003.7 |
| 20260502115711 | 3 | 237 | 0.0 | 3.2 | 0.00 | 0.00 | 0.00 | 86 | 1003.6 |
| 20260502115208 | 3 | 239 | 1.6 | 3.2 | 0.00 | 0.00 | 0.00 | 87 | 1003.7 |
| 20260502114703 | 3 | 172 | 0.0 | 1.6 | 0.00 | 0.00 | 0.00 | 89 | 1003.7 |
| 20260502114201 | 3 | 243 | 0.0 | 1.6 | 0.00 | 0.00 | 0.00 | 90 | 1003.5 |
| 20260502113658 | 3 | 182 | 0.0 | 1.6 | 0.00 | 0.00 | 0.00 | 91 | 1003.4 |
| 20260502113156 | 2 | 219 | 0.0 | 1.6 | 0.00 | 0.00 | 0.00 | 91 | 1003.3 |
| 20260502112654 | 2 | 165 | 0.0 | 0.0 | 0.00 | 0.00 | 0.00 | 91 | 1003.5 |
| 20260502112151 | 2 | 166 | 0.0 | 0.0 | 0.00 | 0.00 | 0.00 | 91 | 1003.5 |
| 20260502111648 | 2 | 270 | 3.2 | 3.2 | 0.00 | 0.00 | 0.00 | 92 | 1003.5 |
| 20260502111146 | 2 | 214 | 0.0 | 3.2 | 0.00 | 0.00 | 0.00 | 92 | 1003.5 |
| 20260502110643 | 2 | 139 | 0.0 | 0.0 | 0.00 | 0.00 | 0.00 | 92 | 1003.5 |
| 20260502110140 | 2 | 277 | 0.0 | 1.6 | 0.00 | 0.00 | 0.00 | 92 | 1003.5 |
| 20260502105638 | 2 | 227 | 0.0 | 0.0 | 0.00 | 0.00 | 0.00 | 92 | 1003.3 |
| 20260502105135 | 2 | 240 | 0.0 | 0.0 | 0.00 | 0.00 | 0.00 | 92 | 1003.3 |
| 20260502104632 | 2 | 156 | 0.0 | 0.0 | 0.00 | 0.00 | 0.00 | 92 | 1003.5 |
| 20260502104129 | 2 | 227 | 0.0 | 0.0 | 0.00 | 0.00 | 0.00 | 91 | 1003.5 |
| 20260502103627 | 2 | 158 | 0.0 | 0.0 | 0.00 | 0.00 | 0.00 | 91 | 1003.6 |
| 20260502103125 | 2 | 354 | 0.0 | 0.0 | 0.00 | 0.00 | 0.00 | 91 | 1003.7 |
| 20260502102621 | 2 | 135 | 0.0 | 0.0 | 0.00 | 0.00 | 0.00 | 91 | 1003.6 |
| 20260502102118 | 2 | 119 | 0.0 | 0.0 | 0.00 | 0.00 | 0.00 | 90 | 1003.5 |
| 20260502101616 | 2 | 115 | 0.0 | 0.0 | 0.00 | 0.00 | 0.00 | 89 | 1003.6 |
| 20260502101114 | 3 | 134 | 1.6 | 1.6 | 0.00 | 0.00 | 0.00 | 89 | 1003.7 |
| 20260502100613 | 3 | 318 | 1.6 | 1.6 | 0.00 | 0.00 | 0.00 | 89 | 1003.4 |
| 20260502100110 | 3 | 73 | 0.0 | 1.6 | 0.00 | 0.00 | 0.00 | 88 | 1003.6 |
| 20260502091044 | 3 | 225 | 0.0 | 0.0 | 0.00 | 0.00 | 0.00 | 85 | 1003.4 |
| 20260502090541 | 3 | 201 | 0.0 | 0.0 | 0.00 | 0.00 | 0.00 | 85 | 1003.3 |
| 20260502071436 | 6 | 134 | 3.2 | 3.2 | 0.00 | 0.00 | 0.00 | 70 | 1003.3 |
| 20260502070934 | 6 | 256 | 3.2 | 9.7 | 0.00 | 0.00 | 0.00 | 69 | 1003.4 |
| 20260502070431 | 6 | 198 | 0.0 | 3.2 | 0.00 | 0.00 | 0.00 | 71 | 1003.3 |
| 20260502065930 | 6 | 157 | 4.8 | 4.8 | 0.00 | 0.00 | 0.00 | 71 | 1003.3 |
| 20260502065428 | 6 | 230 | 0.0 | 1.6 | 0.00 | 0.00 | 0.00 | 74 | 1003.2 |
| 20260502064926 | 6 | 198 | 1.6 | 4.8 | 0.00 | 0.00 | 0.00 | 72 | 1003.1 |
| 20260502064423 | 6 | 234 | 1.6 | 3.2 | 0.00 | 0.00 | 0.00 | 72 | 1003.3 |
| 20260502063920 | 6 | 154 | 3.2 | 3.2 | 0.00 | 0.00 | 0.00 | 71 | 1003.2 |
| 20260502063418 | 7 | 236 | 0.0 | 3.2 | 0.00 | 0.00 | 0.00 | 73 | 1003.2 |
| 20260502062916 | 7 | 188 | 1.6 | 6.4 | 0.00 | 0.00 | 0.00 | 72 | 1003.3 |
| 20260502062412 | 7 | 252 | 3.2 | 4.8 | 0.00 | 0.00 | 0.00 | 71 | 1003.5 |
| 20260502061911 | 7 | 204 | 3.2 | 4.8 | 0.00 | 0.00 | 0.00 | 73 | 1003.6 |
| 20260502061409 | 7 | 163 | 6.4 | 6.4 | 0.00 | 0.00 | 0.00 | 74 | 1003.5 |
| 20260502060904 | 7 | 165 | 3.2 | 3.2 | 0.00 | 0.00 | 0.00 | 75 | 1003.5 |
| 20260502060359 | 7 | 173 | 1.6 | 9.7 | 0.00 | 0.00 | 0.00 | 73 | 1003.5 |
| 20260502055857 | 7 | 142 | 3.2 | 4.8 | 0.00 | 0.00 | 0.00 | 72 | 1003.6 |
| 20260502055354 | 7 | 216 | 3.2 | 4.8 | 0.00 | 0.00 | 0.00 | 75 | 1003.7 |
| 20260502054854 | 7 | 280 | 3.2 | 6.4 | 0.00 | 0.00 | 0.00 | 76 | 1003.6 |
| 20260502054351 | 7 | 161 | 3.2 | 4.8 | 0.00 | 0.00 | 0.00 | 77 | 1003.5 |
| 20260502053849 | 7 | 114 | 4.8 | 11.3 | 0.00 | 0.00 | 0.00 | 77 | 1003.6 |
| 20260502053346 | 7 | 235 | 4.8 | 4.8 | 0.00 | 0.00 | 0.00 | 77 | 1003.7 |
| 20260502052843 | 7 | 268 | 0.0 | 0.0 | 0.00 | 0.00 | 0.00 | 78 | 1003.8 |
| 20260502052341 | 7 | 212 | 0.0 | 1.6 | 0.00 | 0.00 | 0.00 | 78 | 1003.8 |
| 20260502051839 | 7 | 235 | 0.0 | 1.6 | 0.00 | 0.00 | 0.00 | 78 | 1003.6 |
| 20260502051338 | 7 | 289 | 1.6 | 3.2 | 0.00 | 0.00 | 0.00 | 79 | 1003.6 |
| 20260502050833 | 7 | 266 | 3.2 | 3.2 | 0.00 | 0.00 | 0.00 | 78 | 1003.5 |
| 20260502050330 | 7 | 152 | 0.0 | 4.8 | 0.00 | 0.00 | 0.00 | 77 | 1003.6 |
| 20260502045827 | 7 | 250 | 6.4 | 12.9 | 0.00 | 0.00 | 0.00 | 76 | 1003.4 |
| 20260502045324 | 7 | 257 | 1.6 | 9.7 | 0.00 | 0.00 | 0.00 | 76 | 1003.5 |
| 20260502044821 | 7 | 153 | 3.2 | 4.8 | 0.00 | 0.00 | 0.00 | 75 | 1003.5 |
| 20260502044317 | 7 | 254 | 4.8 | 11.3 | 0.00 | 0.00 | 0.00 | 75 | 1003.7 |
| 20260502043814 | 7 | 162 | 1.6 | 6.4 | 0.00 | 0.00 | 0.00 | 75 | 1003.7 |
| 20260502043312 | 7 | 243 | 3.2 | 6.4 | 0.00 | 0.00 | 0.00 | 75 | 1003.3 |
| 20260502042811 | 7 | 143 | 8.0 | 9.7 | 0.00 | 0.00 | 0.00 | 74 | 1003.6 |
| 20260502042309 | 7 | 185 | 3.2 | 9.7 | 0.00 | 0.00 | 0.00 | 74 | 1003.6 |
| 20260502041806 | 7 | 177 | 1.6 | 6.4 | 0.00 | 0.00 | 0.00 | 73 | 1003.3 |
| 20260502041303 | 8 | 141 | 1.6 | 3.2 | 0.00 | 0.00 | 0.00 | 73 | 1003.5 |
| 20260502040800 | 8 | 163 | 6.4 | 11.3 | 0.00 | 0.00 | 0.00 | 72 | 1003.5 |
| 20260502040257 | 8 | 246 | 6.4 | 11.3 | 0.00 | 0.00 | 0.00 | 73 | 1003.4 |
| 20260502035753 | 8 | 280 | 4.8 | 6.4 | 0.00 | 0.00 | 0.00 | 73 | 1003.6 |
| 20260502035250 | 8 | 237 | 0.0 | 3.2 | 0.00 | 0.00 | 0.00 | 73 | 1003.5 |
| 20260502034747 | 8 | 120 | 3.2 | 6.4 | 0.00 | 0.00 | 0.00 | 73 | 1003.6 |
| 20260502034246 | 8 | 124 | 3.2 | 6.4 | 0.00 | 0.00 | 0.00 | 74 | 1003.6 |
| 20260502033743 | 8 | 268 | 3.2 | 9.7 | 0.00 | 0.00 | 0.00 | 74 | 1003.7 |
| 20260502033241 | 8 | 141 | 3.2 | 12.9 | 0.00 | 0.00 | 0.00 | 74 | 1003.5 |
| 20260502032737 | 8 | 150 | 6.4 | 11.3 | 0.00 | 0.00 | 0.00 | 73 | 1003.5 |
| 20260502032233 | 8 | 255 | 1.6 | 6.4 | 0.00 | 0.00 | 0.00 | 74 | 1003.5 |
| 20260502031732 | 8 | 259 | 3.2 | 14.5 | 0.00 | 0.00 | 0.00 | 73 | 1003.6 |
| 20260502031229 | 8 | 247 | 4.8 | 6.4 | 0.00 | 0.00 | 0.00 | 73 | 1003.3 |
| 20260502030728 | 8 | 160 | 3.2 | 4.8 | 0.00 | 0.00 | 0.00 | 75 | 1003.3 |
| 20260502030225 | 8 | 104 | 3.2 | 4.8 | 0.00 | 0.00 | 0.00 | 75 | 1003.2 |
| 20260502025722 | 9 | 241 | 1.6 | 9.7 | 0.00 | 0.00 | 0.00 | 75 | 1003.2 |
| 20260502025220 | 9 | 241 | 3.2 | 9.7 | 0.00 | 0.00 | 0.00 | 75 | 1003.3 |
| 20260502024718 | 9 | 186 | 3.2 | 9.7 | 0.00 | 0.00 | 0.00 | 74 | 1003.0 |
| 20260502024216 | 9 | 113 | 0.0 | 1.6 | 0.00 | 0.00 | 0.00 | 75 | 1003.2 |
| 20260502023714 | 9 | 188 | 3.2 | 6.4 | 0.00 | 0.00 | 0.00 | 74 | 1003.0 |
| 20260502023210 | 9 | 117 | 4.8 | 12.9 | 0.00 | 0.00 | 0.00 | 74 | 1003.1 |
| 20260502022708 | 9 | 149 | 3.2 | 9.7 | 0.00 | 0.00 | 0.00 | 74 | 1002.9 |
| 20260502022204 | 9 | 164 | 3.2 | 4.8 | 0.00 | 0.00 | 0.00 | 74 | 1003.1 |
| 20260502021702 | 9 | 275 | 1.6 | 9.7 | 0.00 | 0.00 | 0.00 | 74 | 1002.8 |
| 20260502021159 | 9 | 173 | 4.8 | 9.7 | 0.00 | 0.00 | 0.00 | 74 | 1002.8 |
| 20260502020656 | 9 | 179 | 1.6 | 14.5 | 0.00 | 0.00 | 0.00 | 75 | 1002.5 |
| 20260502020152 | 10 | 158 | 1.6 | 3.2 | 0.00 | 0.00 | 0.00 | 74 | 1002.3 |
| 20260502015651 | 10 | 152 | 9.7 | 14.5 | 0.00 | 0.00 | 0.00 | 72 | 1002.3 |
| 20260502015147 | 10 | 126 | 4.8 | 6.4 | 0.00 | 0.00 | 0.00 | 72 | 1002.2 |
| 20260502014644 | 10 | 144 | 1.6 | 3.2 | 0.00 | 0.00 | 0.00 | 71 | 1002.2 |
| 20260502014141 | 10 | 171 | 3.2 | 4.8 | 0.00 | 0.00 | 0.00 | 70 | 1002.1 |
| 20260502013637 | 10 | 141 | 3.2 | 6.4 | 0.00 | 0.00 | 0.00 | 71 | 1002.1 |
| 20260502013132 | 10 | 42 | 0.0 | 1.6 | 0.00 | 0.00 | 0.00 | 69 | 1002.0 |
| 20260502012630 | 11 | 178 | 0.0 | 3.2 | 0.00 | 0.00 | 0.00 | 68 | 1002.0 |
| 20260502012128 | 11 | 80 | 3.2 | 4.8 | 0.00 | 0.00 | 0.00 | 67 | 1002.1 |
| 20260502011624 | 11 | 218 | 0.0 | 3.2 | 0.00 | 0.00 | 0.00 | 66 | 1001.9 |
| 20260502011120 | 11 | 190 | 3.2 | 6.4 | 0.00 | 0.00 | 0.00 | 65 | 1001.7 |
| 20260502010618 | 11 | 117 | 0.0 | 4.8 | 0.00 | 0.00 | 0.00 | 63 | 1001.6 |
| 20260502010115 | 11 | 144 | 4.8 | 6.4 | 0.00 | 0.00 | 0.00 | 61 | 1001.6 |
| 20260502005612 | 11 | 138 | 4.8 | 6.4 | 0.00 | 0.00 | 0.00 | 61 | 1001.3 |
| 20260502005110 | 12 | 38 | 0.0 | 1.6 | 0.00 | 0.00 | 0.00 | 56 | 1000.9 |
| 20260502004605 | 12 | 38 | 0.0 | 1.6 | 0.00 | 0.00 | 0.00 | 56 | 1000.9 |
| 20260502004102 | 12 | 129 | 3.2 | 6.4 | 0.00 | 0.00 | 0.00 | 54 | 1000.9 |
| 20260502003601 | 13 | 148 | 4.8 | 12.9 | 0.00 | 0.00 | 0.00 | 53 | 1000.5 |
| 20260502003057 | 13 | 175 | 6.4 | 9.7 | 0.00 | 0.00 | 0.00 | 52 | 1000.4 |
| 20260502002553 | 13 | 237 | 3.2 | 6.4 | 0.00 | 0.00 | 0.00 | 51 | 1000.2 |
| 20260502002050 | 13 | 283 | 3.2 | 6.4 | 0.00 | 0.00 | 0.00 | 51 | 1000.3 |
| 20260502001549 | 13 | 244 | 4.8 | 4.8 | 0.00 | 0.00 | 0.00 | 47 | 1000.0 |
| 20260502001045 | 14 | 130 | 6.4 | 16.1 | 0.00 | 0.00 | 0.00 | 44 | 1000.0 |
| 20260502000543 | 14 | 171 | 3.2 | 6.4 | 0.00 | 0.00 | 0.00 | 43 | 999.7 |
| 20260502000040 | 14 | 241 | 1.6 | 6.4 | 0.00 | 0.00 | 0.00 | 43 | 999.6 |
| 20260501235536 | 14 | 159 | 1.6 | 1.6 | 0.00 | 0.00 | 0.00 | 45 | 999.5 |
| 20260501235032 | 14 | 226 | 0.0 | 1.6 | 0.00 | 0.00 | 0.00 | 45 | 999.2 |
| 20260501234528 | 15 | 237 | 1.6 | 3.2 | 0.00 | 0.00 | 0.00 | 43 | 999.5 |
| 20260501234026 | 15 | 190 | 1.6 | 1.6 | 0.00 | 0.00 | 0.00 | 41 | 999.5 |
| 20260501233524 | 15 | 203 | 4.8 | 4.8 | 0.00 | 0.00 | 0.00 | 39 | 999.5 |
| 20260501233020 | 16 | 227 | 1.6 | 3.2 | 0.00 | 0.00 | 0.00 | 38 | 999.2 |
| 20260501232516 | 16 | 190 | 4.8 | 24.1 | 0.00 | 0.00 | 0.00 | 36 | 999.2 |
| 20260501232014 | 16 | 169 | 3.2 | 20.9 | 0.00 | 0.00 | 0.00 | 38 | 999.0 |
| 20260501231512 | 16 | 134 | 3.2 | 12.9 | 0.00 | 0.00 | 0.00 | 37 | 999.0 |
| 20260501231010 | 16 | 169 | 3.2 | 11.3 | 0.00 | 0.00 | 0.00 | 37 | 999.2 |
| 20260501230509 | 16 | 273 | 3.2 | 6.4 | 0.00 | 0.00 | 0.00 | 37 | 999.4 |
| 20260501230006 | 16 | 166 | 3.2 | 9.7 | 0.00 | 0.00 | 0.00 | 38 | 999.4 |
| 20260501225504 | 16 | 263 | 3.2 | 4.8 | 0.00 | 0.00 | 0.00 | 36 | 999.1 |
| 20260501224959 | 16 | 152 | 6.4 | 16.1 | 0.00 | 0.00 | 0.00 | 36 | 999.0 |
| 20260501224457 | 16 | 192 | 3.2 | 6.4 | 0.00 | 0.00 | 0.00 | 36 | 999.2 |
| 20260501223954 | 17 | 257 | 9.7 | 14.5 | 0.00 | 0.00 | 0.00 | 35 | 999.2 |
| 20260501223450 | 17 | 243 | 6.4 | 9.7 | 0.00 | 0.00 | 0.00 | 36 | 999.2 |
| 20260501222945 | 17 | 249 | 3.2 | 12.9 | 0.00 | 0.00 | 0.00 | 34 | 999.2 |
| 20260501222443 | 16 | 220 | 6.4 | 14.5 | 0.00 | 0.00 | 0.00 | 34 | 999.1 |
| 20260501221939 | 17 | 147 | 3.2 | 9.7 | 0.00 | 0.00 | 0.00 | 35 | 999.1 |
| 20260501221436 | 17 | 173 | 11.3 | 12.9 | 0.00 | 0.00 | 0.00 | 32 | 999.1 |
| 20260501220934 | 18 | 222 | 8.0 | 20.9 | 0.00 | 0.00 | 0.00 | 34 | 998.9 |
| 20260501220432 | 18 | 223 | 4.8 | 6.4 | 0.00 | 0.00 | 0.00 | 31 | 998.9 |
| 20260501215927 | 17 | 158 | 1.6 | 3.2 | 0.00 | 0.00 | 0.00 | 31 | 999.0 |
| 20260501215424 | 17 | 248 | 1.6 | 3.2 | 0.00 | 0.00 | 0.00 | 36 | 999.2 |
| 20260501214920 | 18 | 222 | 1.6 | 4.8 | 0.00 | 0.00 | 0.00 | 37 | 999.0 |
| 20260501214415 | 17 | 148 | 1.6 | 4.8 | 0.00 | 0.00 | 0.00 | 32 | 999.1 |
| 20260501213911 | 17 | 160 | 3.2 | 6.4 | 0.00 | 0.00 | 0.00 | 32 | 998.9 |
| 20260501213408 | 17 | 244 | 4.8 | 6.4 | 0.00 | 0.00 | 0.00 | 31 | 999.0 |
| 20260501212903 | 17 | 251 | 1.6 | 9.7 | 0.00 | 0.00 | 0.00 | 33 | 999.1 |
| 20260501212400 | 18 | 197 | 4.8 | 12.9 | 0.00 | 0.00 | 0.00 | 32 | 999.2 |
| 20260501211857 | 18 | 258 | 3.2 | 4.8 | 0.00 | 0.00 | 0.00 | 27 | 999.1 |
| 20260501211355 | 18 | 156 | 6.4 | 14.5 | 0.00 | 0.00 | 0.00 | 30 | 998.9 |
| 20260501210852 | 18 | 304 | 3.2 | 4.8 | 0.00 | 0.00 | 0.00 | 29 | 999.5 |
| 20260501210349 | 18 | 208 | 6.4 | 6.4 | 0.00 | 0.00 | 0.00 | 30 | 999.2 |
| 20260501205845 | 18 | 269 | 6.4 | 16.1 | 0.00 | 0.00 | 0.00 | 28 | 999.0 |
| 20260501205342 | 18 | 169 | 9.7 | 27.4 | 0.00 | 0.00 | 0.00 | 31 | 998.9 |
| 20260501204839 | 19 | 181 | 6.4 | 9.7 | 0.00 | 0.00 | 0.00 | 31 | 998.9 |
| 20260501204335 | 18 | 238 | 9.7 | 14.5 | 0.00 | 0.00 | 0.00 | 30 | 999.0 |
| 20260501203832 | 19 | 242 | 3.2 | 11.3 | 0.00 | 0.00 | 0.00 | 32 | 998.9 |
| 20260501203329 | 19 | 358 | 4.8 | 9.7 | 0.00 | 0.00 | 0.00 | 30 | 999.1 |
| 20260501202826 | 19 | 232 | 9.7 | 27.4 | 0.00 | 0.00 | 0.00 | 33 | 999.0 |
| 20260501202323 | 19 | 277 | 12.9 | 17.7 | 0.00 | 0.00 | 0.00 | 27 | 999.1 |
| 20260501201820 | 19 | 141 | 8.0 | 14.5 | 0.00 | 0.00 | 0.00 | 34 | 999.2 |
| 20260501201316 | 19 | 262 | 9.7 | 12.9 | 0.00 | 0.00 | 0.00 | 33 | 999.2 |
| 20260501200813 | 18 | 184 | 6.4 | 11.3 | 0.00 | 0.00 | 0.00 | 35 | 999.1 |
| 20260501200310 | 18 | 305 | 8.0 | 14.5 | 0.00 | 0.00 | 0.00 | 32 | 999.2 |
| 20260501195808 | 18 | 178 | 6.4 | 9.7 | 0.00 | 0.00 | 0.00 | 34 | 999.1 |
| 20260501195305 | 19 | 174 | 6.4 | 9.7 | 0.00 | 0.00 | 0.00 | 33 | 999.6 |
| 20260501194759 | 18 | 252 | 4.8 | 16.1 | 0.00 | 0.00 | 0.00 | 33 | 999.7 |
| 20260501194256 | 18 | 164 | 1.6 | 9.7 | 0.00 | 0.00 | 0.00 | 36 | 999.7 |
| 20260501193752 | 18 | 219 | 3.2 | 16.1 | 0.00 | 0.00 | 0.00 | 36 | 999.7 |
| 20260501193251 | 18 | 160 | 4.8 | 9.7 | 0.00 | 0.00 | 0.00 | 36 | 1000.0 |
| 20260501192748 | 17 | 225 | 9.7 | 14.5 | 0.00 | 0.00 | 0.00 | 33 | 1000.1 |
| 20260501192244 | 18 | 235 | 8.0 | 11.3 | 0.00 | 0.00 | 0.00 | 34 | 1000.1 |
| 20260501191742 | 18 | 322 | 1.6 | 11.3 | 0.00 | 0.00 | 0.00 | 34 | 1000.5 |
| 20260501191239 | 18 | 246 | 0.0 | 6.4 | 0.00 | 0.00 | 0.00 | 36 | 1000.5 |
| 20260501190736 | 18 | 176 | 6.4 | 6.4 | 0.00 | 0.00 | 0.00 | 35 | 1000.6 |
| 20260501190231 | 17 | 142 | 6.4 | 9.7 | 0.00 | 0.00 | 0.00 | 34 | 1000.8 |
| 20260501185727 | 17 | 154 | 1.6 | 9.7 | 0.00 | 0.00 | 0.00 | 36 | 1000.7 |
| 20260501185223 | 17 | 278 | 6.4 | 17.7 | 0.00 | 0.00 | 0.00 | 36 | 1000.8 |
| 20260501184719 | 17 | 274 | 4.8 | 12.9 | 0.00 | 0.00 | 0.00 | 37 | 1000.7 |
| 20260501184215 | 18 | 273 | 4.8 | 11.3 | 0.00 | 0.00 | 0.00 | 34 | 1000.7 |
| 20260501183711 | 17 | 257 | 3.2 | 16.1 | 0.00 | 0.00 | 0.00 | 36 | 1000.7 |
| 20260501183208 | 17 | 268 | 6.4 | 11.3 | 0.00 | 0.00 | 0.00 | 33 | 1000.8 |
| 20260501182704 | 17 | 262 | 6.4 | 12.9 | 0.00 | 0.00 | 0.00 | 40 | 1000.8 |
| 20260501182201 | 17 | 251 | 4.8 | 12.9 | 0.00 | 0.00 | 0.00 | 36 | 1001.1 |
| 20260501181658 | 17 | 239 | 3.2 | 11.3 | 0.00 | 0.00 | 0.00 | 36 | 1001.1 |
| 20260501181155 | 17 | 288 | 3.2 | 14.5 | 0.00 | 0.00 | 0.00 | 37 | 1001.1 |
| 20260501180654 | 17 | 253 | 4.8 | 14.5 | 0.00 | 0.00 | 0.00 | 39 | 1000.9 |
| 20260501180149 | 17 | 32 | 0.0 | 4.8 | 0.00 | 0.00 | 0.00 | 44 | 1001.1 |
| 20260501175646 | 17 | 259 | 6.4 | 14.5 | 0.00 | 0.00 | 0.00 | 40 | 1001.3 |
| 20260501175143 | 17 | 145 | 3.2 | 4.8 | 0.00 | 0.00 | 0.00 | 39 | 1001.4 |
| 20260501174639 | 16 | 129 | 1.6 | 3.2 | 0.00 | 0.00 | 0.00 | 41 | 1001.3 |
| 20260501174137 | 17 | 281 | 4.8 | 16.1 | 0.00 | 0.00 | 0.00 | 40 | 1001.3 |
| 20260501173635 | 16 | 255 | 1.6 | 3.2 | 0.00 | 0.00 | 0.00 | 43 | 1001.5 |
| 20260501173131 | 16 | 145 | 1.6 | 3.2 | 0.00 | 0.00 | 0.00 | 40 | 1001.6 |
| 20260501172627 | 15 | 159 | 3.2 | 11.3 | 0.00 | 0.00 | 0.00 | 40 | 1001.9 |
| 20260501172122 | 16 | 316 | 6.4 | 16.1 | 0.00 | 0.00 | 0.00 | 39 | 1001.5 |
| 20260501171619 | 15 | 9 | 3.2 | 9.7 | 0.00 | 0.00 | 0.00 | 41 | 1001.9 |
| 20260501171116 | 15 | 249 | 12.9 | 16.1 | 0.00 | 0.00 | 0.00 | 40 | 1001.9 |
| 20260501170613 | 15 | 110 | 8.0 | 9.7 | 0.00 | 0.00 | 0.00 | 41 | 1002.0 |
| 20260501170110 | 16 | 104 | 9.7 | 12.9 | 0.00 | 0.00 | 0.00 | 37 | 1002.1 |
| 20260501165607 | 15 | 147 | 1.6 | 9.7 | 0.00 | 0.00 | 0.00 | 36 | 1001.8 |
| 20260501165104 | 15 | 251 | 17.7 | 20.9 | 0.00 | 0.00 | 0.00 | 36 | 1001.9 |
| 20260501164602 | 16 | 271 | 6.4 | 11.3 | 0.00 | 0.00 | 0.00 | 35 | 1002.0 |
| 20260501164059 | 16 | 40 | 3.2 | 6.4 | 0.00 | 0.00 | 0.00 | 38 | 1002.1 |
| 20260501163555 | 16 | 87 | 1.6 | 4.8 | 0.00 | 0.00 | 0.00 | 39 | 1002.1 |
| 20260501163052 | 14 | 260 | 16.1 | 17.7 | 0.00 | 0.00 | 0.00 | 39 | 1002.2 |
| 20260501162549 | 14 | 177 | 1.6 | 9.7 | 0.00 | 0.00 | 0.00 | 51 | 1002.5 |
| 20260501162046 | 14 | 233 | 1.6 | 9.7 | 0.00 | 0.00 | 0.00 | 42 | 1002.5 |
| 20260501161543 | 15 | 23 | 12.9 | 16.1 | 0.00 | 0.00 | 0.00 | 46 | 1002.5 |
| 20260501161039 | 14 | 60 | 9.7 | 12.9 | 0.00 | 0.00 | 0.00 | 44 | 1002.9 |
| 20260501160536 | 15 | 283 | 4.8 | 9.7 | 0.00 | 0.00 | 0.00 | 42 | 1002.9 |
| 20260501160033 | 14 | 86 | 3.2 | 4.8 | 0.00 | 0.00 | 0.00 | 48 | 1002.8 |
| 20260501155529 | 13 | 271 | 3.2 | 11.3 | 0.00 | 0.00 | 0.00 | 45 | 1002.9 |
| 20260501155027 | 13 | 3 | 14.5 | 16.1 | 0.00 | 0.00 | 0.00 | 52 | 1003.1 |